Location: Toronto
(43.6672°N, 79.4170°W)
Time: 16:51:02
(UTC-05:00)

ISS - Visible Passes

Search period start: 27 November 2014 00:00
Search period end: 07 December 2014 00:00
Orbit: 407 x 417 km, 51.6° (Epoch: 27 November)

Date Brightness Start Highest point End Pass type
(mag) Time Alt. Az. Time Alt. Az. Time Alt. Az.
27 Nov -2.2 05:14:57 43° ESE 05:14:57 43° ESE 05:17:17 10° ESE visible
27 Nov -1.1 06:48:30 10° W 06:50:13 14° SW 06:51:55 10° SSW visible
28 Nov -1.9 06:00:16 23° SW 06:00:35 23° SW 06:03:16 10° S visible
29 Nov -1.0 05:12:48 19° SSE 05:12:48 19° SSE 05:13:58 10° SSE visible
06 Dec -0.2 19:13:05 10° SSW 19:13:15 11° SSW 19:13:15 11° SSW visible
